Lid_Strength_Index
6 6 5 5 5 5 8 14 17 10 9 15 17 19 16 10 11 9 11 11 11 13 12 14 13 13 12 8 11 16 17 22 21 18 16 15 16 18 18 21 19 16 18 23
6 6 5 5 5 5 12 15 15 10 11 18 17 14 12 11 11 11 11 11 10 10 12 14 12 11 7 8 10 15 15 23 24 20 18 17 19 18 18 18 17 23 19 24
6 5 5 5 5 5 11 14 18 14 14 14 16 16 15 13 9 10 9 10 10 11 12 11 13 12 8 7 8 7 10 19 24 26 21 17 20 20 20 20 23 24 27 26
5 5 5 5 5 5 11 15 17 15 18 15 15 15 13 13 12 9 9 11 10 12 14 13 13 11 10 8 7 10 13 20 17 15 14 18 19 21 22 24 24 25 26 26
5 6 6 5 5 5 12 15 16 14 15 14 15 13 13 12 11 10 12 12 11 12 18 16 15 12 11 12 10 12 11 19 15 16 14 16 19 20 22 23 24 24 25 26
5 6 5 5 5 6 12 11 11 12 13 15 16 15 12 11 9 9 9 10 12 12 10 9 10 9 9 10 14 13 13 17 18 20 14 15 23 20 22 23 22 22 27 24
6 5 5 4 4 4 8 9 9 12 15 14 12 11 10 11 10 11 9 8 12 9 8 8 9 10 10 10 10 10 15 15 15 19 16 25 19 15 18 22 21 21 21 21
6 5 4 4 4 3 6 6 7 10 14 12 11 11 11 11 10 11 9 9 8 8 10 13 14 14 13 12 10 10 11 13 20 20 20 19 20 19 19 20 22 19 21 20
6 5 4 4 3 3 5 5 4 7 11 13 10 11 11 14 15 11 9 7 8 9 11 13 17 17 14 15 12 9 11 12 17 20 22 22 20 17 15 15 24 18 19 20
4 4 4 3 2 2 4 4 3 6 10 10 9 13 14 13 14 15 11 9 10 10 12 15 17 17 12 16 16 16 16 20 25 21 27 21 19 17 14 27 23 17 17 18
4 4 3 3 2 2 3 6 3 5 8 10 8 8 12 12 12 14 12 10 9 11 17 15 16 16 16 17 18 19 20 23 24 23 26 26 17 16 20 19 15 15 16 17
4 4 3 3 3 2 2 6 3 2 6 7 5 4 5 6 7 9 9 9 10 10 15 16 15 15 16 20 23 19 21 22 23 21 23 19 18 19 17 17 16 15 16 16
4 4 3 3 2 2 3 5 4 4 6 6 7 8 5 4 4 2 7 7 7 11 11 15 15 18 17 22 22 24 21 20 21 20 16 16 16 14 14 14 16 14 15 15
4 3 3 3 2 2 3 5 3 4 6 10 9 5 7 4 4 4 4 5 5 6 9 15 17 17 15 21 21 21 21 19 22 22 18 16 15 16 17 15 15 15 15 15
3 3 3 3 3 3 4 4 4 3 6 9 9 7 6 5 5 5 4 5 7 9 11 15 18 16 16 20 22 27 22 22 23 23 18 18 16 15 15 17 17 17 16 16
4 3 3 3 2 3 5 8 5 2 3 9 11 7 8 6 7 7 7 6 8 12 14 16 18 16 15 25 30 22 20 18 18 19 17 17 15 14 19 19 21 19 18 19
3 3 4 4 3 6 7 8 3 1 3 9 11 11 9 7 6 7 8 8 12 13 17 16 17 16 15 24 28 20 19 17 16 16 16 18 17 17 17 22 20 19 20 22
4 4 4 3 3 4 8 4 3 2 5 7 12 11 11 8 9 9 9 13 14 13 15 14 16 15 18 25 23 21 18 15 16 17 17 17 17 17 16 18 20 20 22 23
4 5 4 7 8 10 8 2 3 5 6 12 12 14 15 9 9 8 9 9 15 11 15 16 14 19 24 22 22 20 18 18 17 15 13 14 17 17 15 18 18 19 19 19
5 8 9 13 10 4 3 7 10 9 9 9 14 11 15 11 11 10 12 11 15 20 16 13 19 22 19 19 18 17 16 16 14 16 16 14 15 16 16 19 18 16 18 19
10 12 13 10 5 9 10 15 17 15 17 12 13 13 15 9 15 14 13 14 14 23 17 17 20 24 19 16 17 15 15 14 13 14 14 14 15 15 16 15 14 14 15 16
10 10 9 11 13 17 20 23 16 17 18 13 15 14 12 11 9 12 13 14 16 23 13 20 24 19 17 15 15 14 13 13 13 13 13 13 13 13 14 14 14 14 14 14
10 14 20 19 21 24 26 28 25 23 16 15 18 17 13 10 9 13 15 20 20 13 21 23 21 17 15 15 14 14 14 13 14 14 13 13 13 12 13 14 13 14 14 14
18 24 25 26 28 22 21 21 19 16 15 16 16 16 14 12 15 14 20 15 16 23 25 24 19 18 15 14 14 14 15 14 15 14 13 13 13 13 13 13 14 14 15 14
24 23 27 22 18 19 20 17 17 14 14 16 17 15 14 17 19 15 17 21 23 21 22 18 17 15 14 15 14 14 14 15 16 16 15 14 13 13 14 13 13 13 13 14
23 23 26 19 22 23 22 21 21 15 15 14 14 22 24 20 19 21 21 23 24 20 17 15 15 15 14 14 14 14 13 14 15 14 14 13 13 14 14 13 13 13 13 15
26 25 17 19 21 22 19 18 17 14 16 22 22 26 23 19 23 23 19 22 18 15 15 13 13 14 14 14 14 13 13 14 14 14 14 14 13 15 14 15 14 14 13 15